Location: Kershaw
(34.5481°N, 80.5823°W)
Time: 11:13:17
(UTC+00:00)

Explorer 7 - Pass Details

Date: 03 October 2022
Orbit: 481 x 665 km, 50.3° (Epoch: 26 November)

Event Time Altitude Azimuth Distance (km) Brightness Sun altitude
Rises 19:39:27 0° 315° (NW) 2,965 10.6 37.9°
Reaches altitude 10° 19:43:10 10° 344° (NNW) 2,020 9.6 37.3°
Maximum altitude 19:45:14 13° 11° (N) 1,822 9.2 37.0°
Drops below altitude 10° 19:47:15 10° 37° (NE) 1,973 9.3 36.7°
Sets 19:50:47 0° 67° (ENE) 2,827 10.0 36.1°
